| time (UTC) | temp F | wind direction | speed knots | gust knots | rain 1hr in | rain 24hr in | rain mn in | humidity % | barometer mb |
| 20260505053829 | 54 | 59 | 0.0 | 0.0 | 0.00 | 0.00 | 0.00 | 99 | 1014.4 |
| 20260505053326 | 54 | 59 | 0.0 | 0.0 | 0.00 | 0.00 | 0.00 | 99 | 1014.5 |
| 20260505052822 | 54 | 59 | 0.0 | 0.0 | 0.00 | 0.00 | 0.00 | 99 | 1014.7 |
| 20260505052319 | 54 | 59 | 0.0 | 0.0 | 0.00 | 0.00 | 0.00 | 99 | 1014.6 |
| 20260505051817 | 55 | 59 | 0.0 | 0.0 | 0.00 | 0.00 | 0.00 | 99 | 1014.5 |
| 20260505051314 | 54 | 59 | 0.0 | 0.0 | 0.00 | 0.00 | 0.00 | 99 | 1014.6 |
| 20260505050812 | 54 | 59 | 0.0 | 0.0 | 0.00 | 0.00 | 0.00 | 99 | 1014.8 |
| 20260505050310 | 54 | 59 | 0.0 | 0.0 | 0.00 | 0.00 | 0.00 | 99 | 1014.6 |
| 20260505041740 | 55 | 59 | 0.0 | 0.0 | 0.00 | 0.00 | 0.00 | 98 | 1014.9 |
| 20260505041237 | 55 | 59 | 0.0 | 0.0 | 0.00 | 0.00 | 0.00 | 98 | 1015.0 |
| 20260505040735 | 55 | 59 | 0.0 | 0.0 | 0.00 | 0.00 | 0.00 | 98 | 1014.8 |
| 20260505040232 | 55 | 59 | 0.0 | 0.0 | 0.00 | 0.00 | 0.00 | 97 | 1014.8 |
| 20260505035729 | 55 | 59 | 0.0 | 0.0 | 0.00 | 0.00 | 0.00 | 97 | 1015.0 |
| 20260505035224 | 55 | 59 | 0.0 | 0.0 | 0.00 | 0.00 | 0.00 | 97 | 1015.0 |
| 20260505034721 | 56 | 59 | 0.0 | 0.0 | 0.00 | 0.00 | 0.00 | 96 | 1014.9 |
| 20260505034218 | 56 | 60 | 0.0 | 0.0 | 0.00 | 0.00 | 0.00 | 96 | 1015.0 |
| 20260505033715 | 56 | 59 | 0.0 | 0.0 | 0.00 | 0.00 | 0.00 | 96 | 1014.9 |
| 20260505033213 | 56 | 59 | 0.0 | 0.0 | 0.00 | 0.00 | 0.00 | 95 | 1014.8 |
| 20260505032711 | 57 | 59 | 0.0 | 0.0 | 0.00 | 0.00 | 0.00 | 95 | 1014.6 |
| 20260505032206 | 57 | 59 | 0.0 | 0.0 | 0.00 | 0.00 | 0.00 | 94 | 1014.7 |
| 20260505031704 | 57 | 59 | 0.0 | 0.0 | 0.00 | 0.00 | 0.00 | 95 | 1014.7 |
| 20260505031200 | 57 | 59 | 0.0 | 0.0 | 0.00 | 0.00 | 0.00 | 94 | 1014.7 |
| 20260505030657 | 57 | 59 | 0.0 | 0.0 | 0.00 | 0.00 | 0.00 | 93 | 1014.8 |
| 20260505030153 | 57 | 59 | 0.0 | 0.0 | 0.00 | 0.00 | 0.00 | 93 | 1014.8 |
| 20260505025649 | 57 | 59 | 0.0 | 0.0 | 0.00 | 0.00 | 0.00 | 92 | 1014.7 |
| 20260505025148 | 57 | 60 | 0.0 | 0.0 | 0.00 | 0.00 | 0.00 | 91 | 1014.6 |
| 20260505024645 | 58 | 59 | 0.0 | 0.0 | 0.00 | 0.00 | 0.00 | 91 | 1014.7 |
| 20260505024142 | 58 | 59 | 0.0 | 0.0 | 0.00 | 0.00 | 0.00 | 90 | 1014.7 |
| 20260505023639 | 58 | 59 | 0.0 | 0.0 | 0.00 | 0.00 | 0.00 | 89 | 1014.7 |
| 20260505023137 | 58 | 60 | 0.0 | 0.0 | 0.00 | 0.00 | 0.00 | 88 | 1014.7 |
| 20260505022634 | 59 | 59 | 0.0 | 0.0 | 0.00 | 0.00 | 0.00 | 87 | 1014.7 |
| 20260505022131 | 60 | 59 | 0.0 | 0.0 | 0.00 | 0.00 | 0.00 | 85 | 1014.6 |
| 20260505021627 | 60 | 59 | 0.0 | 0.0 | 0.00 | 0.00 | 0.00 | 84 | 1014.6 |
| 20260505021124 | 60 | 60 | 0.0 | 0.0 | 0.00 | 0.00 | 0.00 | 85 | 1014.4 |
| 20260505020620 | 60 | 60 | 0.0 | 0.0 | 0.00 | 0.00 | 0.00 | 85 | 1014.4 |
| 20260505020116 | 60 | 60 | 0.0 | 0.0 | 0.00 | 0.00 | 0.00 | 85 | 1014.4 |
| 20260505015613 | 60 | 60 | 0.0 | 0.0 | 0.00 | 0.00 | 0.00 | 84 | 1014.4 |
| 20260505015110 | 61 | 60 | 0.0 | 0.0 | 0.00 | 0.00 | 0.00 | 83 | 1014.4 |
| 20260505014607 | 61 | 60 | 0.0 | 0.0 | 0.00 | 0.00 | 0.00 | 82 | 1014.1 |
| 20260505014104 | 62 | 60 | 0.0 | 0.0 | 0.00 | 0.00 | 0.00 | 82 | 1014.0 |
| 20260505013601 | 62 | 60 | 0.0 | 0.0 | 0.00 | 0.00 | 0.00 | 80 | 1014.2 |
| 20260505013058 | 63 | 60 | 0.0 | 0.0 | 0.00 | 0.00 | 0.00 | 78 | 1014.0 |
| 20260505012556 | 64 | 60 | 0.0 | 0.0 | 0.00 | 0.00 | 0.00 | 75 | 1014.1 |
| 20260505012053 | 64 | 60 | 0.0 | 0.0 | 0.00 | 0.00 | 0.00 | 74 | 1014.0 |
| 20260505011548 | 64 | 60 | 0.0 | 0.0 | 0.00 | 0.00 | 0.00 | 73 | 1014.0 |
| 20260505011046 | 65 | 60 | 0.0 | 0.0 | 0.00 | 0.00 | 0.00 | 73 | 1014.1 |
| 20260505010541 | 65 | 60 | 0.0 | 0.0 | 0.00 | 0.00 | 0.00 | 70 | 1014.0 |
| 20260505010038 | 66 | 60 | 0.0 | 0.0 | 0.00 | 0.00 | 0.00 | 69 | 1014.1 |
| 20260505005534 | 67 | 83 | 0.0 | 0.0 | 0.00 | 0.00 | 0.00 | 68 | 1014.3 |
| 20260505005032 | 68 | 78 | 0.0 | 0.0 | 0.00 | 0.00 | 0.00 | 68 | 1014.2 |
| 20260505004529 | 68 | 76 | 0.0 | 0.0 | 0.00 | 0.00 | 0.00 | 64 | 1014.4 |
| 20260505004026 | 68 | 151 | 1.7 | 1.7 | 0.00 | 0.00 | 0.00 | 62 | 1014.5 |
| 20260505003523 | 69 | 69 | 0.0 | 0.0 | 0.00 | 0.00 | 0.00 | 63 | 1014.4 |
| 20260505003020 | 69 | 146 | 0.9 | 0.9 | 0.00 | 0.00 | 0.00 | 61 | 1014.3 |
| 20260505002515 | 69 | 112 | 0.0 | 0.0 | 0.00 | 0.00 | 0.00 | 60 | 1014.4 |
| 20260505002014 | 70 | 147 | 0.0 | 0.0 | 0.00 | 0.00 | 0.00 | 60 | 1014.5 |
| 20260505001511 | 70 | 52 | 0.0 | 0.0 | 0.00 | 0.00 | 0.00 | 60 | 1014.5 |
| 20260505001008 | 71 | 113 | 0.0 | 0.0 | 0.00 | 0.00 | 0.00 | 58 | 1014.6 |
| 20260505000506 | 71 | 120 | 0.0 | 0.0 | 0.00 | 0.00 | 0.00 | 57 | 1014.6 |
| 20260505000003 | 71 | 121 | 2.6 | 2.6 | 0.00 | 0.00 | 0.00 | 56 | 1014.4 |
| 20260504235500 | 72 | 95 | 0.0 | 0.0 | 0.00 | 0.00 | 0.00 | 55 | 1014.4 |
| 20260504234956 | 73 | 188 | 0.9 | 1.7 | 0.00 | 0.00 | 0.00 | 54 | 1014.5 |
| 20260504234453 | 73 | 145 | 0.9 | 1.7 | 0.00 | 0.00 | 0.00 | 54 | 1014.6 |
| 20260504233950 | 73 | 121 | 0.9 | 0.9 | 0.00 | 0.00 | 0.00 | 53 | 1014.7 |
| 20260504233445 | 74 | 153 | 1.7 | 1.7 | 0.00 | 0.00 | 0.00 | 55 | 1014.7 |
| 20260504232943 | 74 | 161 | 0.9 | 1.7 | 0.00 | 0.00 | 0.00 | 53 | 1014.6 |
| 20260504232440 | 74 | 175 | 2.6 | 3.5 | 0.00 | 0.00 | 0.00 | 51 | 1014.6 |
| 20260504231937 | 74 | 219 | 3.5 | 5.2 | 0.00 | 0.00 | 0.00 | 51 | 1014.7 |
| 20260504231433 | 74 | 148 | 2.6 | 2.6 | 0.00 | 0.00 | 0.00 | 51 | 1014.8 |
| 20260504230929 | 74 | 310 | 0.0 | 0.9 | 0.00 | 0.00 | 0.00 | 51 | 1014.9 |
| 20260504230426 | 75 | 164 | 0.9 | 1.7 | 0.00 | 0.00 | 0.00 | 50 | 1014.8 |
| 20260504225926 | 74 | 137 | 0.9 | 0.9 | 0.00 | 0.00 | 0.00 | 51 | 1014.9 |
| 20260504225422 | 75 | 125 | 1.7 | 2.6 | 0.00 | 0.00 | 0.00 | 50 | 1015.1 |
| 20260504224919 | 76 | 185 | 3.5 | 5.2 | 0.00 | 0.00 | 0.00 | 50 | 1014.9 |
| 20260504224415 | 76 | 103 | 0.9 | 0.9 | 0.00 | 0.00 | 0.00 | 48 | 1015.0 |
| 20260504223913 | 76 | 180 | 2.6 | 2.6 | 0.00 | 0.00 | 0.00 | 49 | 1015.0 |
| 20260504223408 | 76 | 183 | 1.7 | 1.7 | 0.00 | 0.00 | 0.00 | 50 | 1015.1 |
| 20260504222904 | 75 | 42 | 0.0 | 0.0 | 0.00 | 0.00 | 0.00 | 50 | 1015.0 |
| 20260504222401 | 75 | 241 | 4.3 | 6.1 | 0.00 | 0.00 | 0.00 | 50 | 1015.1 |
| 20260504221900 | 77 | 106 | 1.7 | 3.5 | 0.00 | 0.00 | 0.00 | 49 | 1015.3 |
| 20260504221356 | 76 | 271 | 2.6 | 2.6 | 0.00 | 0.00 | 0.00 | 49 | 1015.1 |
| 20260504220854 | 76 | 205 | 0.9 | 0.9 | 0.00 | 0.00 | 0.00 | 53 | 1015.3 |
| 20260504220350 | 76 | 180 | 5.2 | 6.1 | 0.00 | 0.00 | 0.00 | 49 | 1015.2 |
| 20260504215847 | 76 | 114 | 1.7 | 2.6 | 0.00 | 0.00 | 0.00 | 51 | 1015.4 |
| 20260504215344 | 77 | 169 | 5.2 | 6.1 | 0.00 | 0.00 | 0.00 | 49 | 1015.5 |
| 20260504214840 | 77 | 118 | 1.7 | 1.7 | 0.00 | 0.00 | 0.00 | 52 | 1015.2 |
| 20260504214337 | 77 | 259 | 0.9 | 0.9 | 0.00 | 0.00 | 0.00 | 49 | 1015.3 |
| 20260504213833 | 77 | 138 | 0.9 | 1.7 | 0.00 | 0.00 | 0.00 | 49 | 1015.3 |
| 20260504213329 | 76 | 263 | 1.7 | 2.6 | 0.00 | 0.00 | 0.00 | 47 | 1015.5 |
| 20260504212827 | 77 | 149 | 1.7 | 1.7 | 0.00 | 0.00 | 0.00 | 49 | 1015.5 |
| 20260504212323 | 77 | 182 | 0.9 | 0.9 | 0.00 | 0.00 | 0.00 | 51 | 1015.5 |
| 20260504211821 | 77 | 203 | 1.7 | 3.5 | 0.00 | 0.00 | 0.00 | 49 | 1015.5 |
| 20260504211316 | 76 | 156 | 3.5 | 3.5 | 0.00 | 0.00 | 0.00 | 48 | 1015.6 |
| 20260504210814 | 77 | 272 | 1.7 | 1.7 | 0.00 | 0.00 | 0.00 | 49 | 1015.7 |
| 20260504210311 | 76 | 127 | 5.2 | 6.1 | 0.00 | 0.00 | 0.00 | 48 | 1015.6 |
| 20260504205809 | 77 | 214 | 2.6 | 3.5 | 0.00 | 0.00 | 0.00 | 49 | 1015.4 |
| 20260504205306 | 76 | 154 | 2.6 | 2.6 | 0.00 | 0.00 | 0.00 | 50 | 1015.7 |
| 20260504204804 | 76 | 230 | 3.5 | 3.5 | 0.00 | 0.00 | 0.00 | 50 | 1015.6 |
| 20260504204302 | 77 | 125 | 5.2 | 6.1 | 0.00 | 0.00 | 0.00 | 48 | 1015.8 |
| 20260504203801 | 77 | 183 | 2.6 | 3.5 | 0.00 | 0.00 | 0.00 | 47 | 1015.9 |
| 20260504203258 | 77 | 112 | 2.6 | 5.2 | 0.00 | 0.00 | 0.00 | 47 | 1015.7 |
| 20260504202758 | 77 | 171 | 3.5 | 6.1 | 0.00 | 0.00 | 0.00 | 48 | 1015.8 |
| 20260504202256 | 77 | 203 | 3.5 | 3.5 | 0.00 | 0.00 | 0.00 | 46 | 1016.1 |
| 20260504201752 | 77 | 215 | 5.2 | 7.0 | 0.00 | 0.00 | 0.00 | 49 | 1016.0 |
| 20260504201250 | 77 | 201 | 2.6 | 5.2 | 0.00 | 0.00 | 0.00 | 51 | 1016.2 |
| 20260504200748 | 77 | 226 | 0.9 | 1.7 | 0.00 | 0.00 | 0.00 | 46 | 1016.1 |
| 20260504200243 | 77 | 212 | 4.3 | 5.2 | 0.00 | 0.00 | 0.00 | 49 | 1016.4 |
| 20260504195740 | 76 | 237 | 2.6 | 2.6 | 0.00 | 0.00 | 0.00 | 46 | 1016.3 |
| 20260504195236 | 76 | 194 | 2.6 | 3.5 | 0.00 | 0.00 | 0.00 | 47 | 1016.5 |
| 20260504194733 | 76 | 223 | 2.6 | 3.5 | 0.00 | 0.00 | 0.00 | 47 | 1016.9 |
| 20260504194229 | 77 | 179 | 3.5 | 5.2 | 0.00 | 0.00 | 0.00 | 49 | 1016.7 |
| 20260504193726 | 77 | 265 | 3.5 | 5.2 | 0.00 | 0.00 | 0.00 | 46 | 1016.8 |
| 20260504193223 | 78 | 197 | 2.6 | 3.5 | 0.00 | 0.00 | 0.00 | 48 | 1017.1 |
| 20260504192721 | 76 | 159 | 1.7 | 2.6 | 0.00 | 0.00 | 0.00 | 50 | 1017.2 |
| 20260504192219 | 77 | 158 | 5.2 | 7.0 | 0.00 | 0.00 | 0.00 | 47 | 1017.3 |
| 20260504191718 | 77 | 181 | 3.5 | 5.2 | 0.00 | 0.00 | 0.00 | 46 | 1017.3 |
| 20260504191214 | 77 | 204 | 5.2 | 6.1 | 0.00 | 0.00 | 0.00 | 47 | 1017.2 |
| 20260504190709 | 76 | 227 | 0.9 | 1.7 | 0.00 | 0.00 | 0.00 | 47 | 1017.2 |
| 20260504190206 | 77 | 172 | 1.7 | 2.6 | 0.00 | 0.00 | 0.00 | 44 | 1017.2 |
| 20260504185703 | 76 | 334 | 7.0 | 11.3 | 0.00 | 0.00 | 0.00 | 47 | 1017.3 |
| 20260504185159 | 76 | 166 | 1.7 | 2.6 | 0.00 | 0.00 | 0.00 | 47 | 1017.2 |
| 20260504184655 | 76 | 105 | 1.7 | 2.6 | 0.00 | 0.00 | 0.00 | 47 | 1017.6 |
| 20260504184150 | 77 | 154 | 2.6 | 3.5 | 0.00 | 0.00 | 0.00 | 41 | 1017.5 |
| 20260504183647 | 76 | 103 | 1.7 | 1.7 | 0.00 | 0.00 | 0.00 | 44 | 1017.6 |
| 20260504183145 | 75 | 136 | 2.6 | 3.5 | 0.00 | 0.00 | 0.00 | 46 | 1017.6 |
| 20260504182643 | 75 | 13 | 0.9 | 1.7 | 0.00 | 0.00 | 0.00 | 45 | 1017.8 |
| 20260504182140 | 76 | 152 | 7.8 | 9.6 | 0.00 | 0.00 | 0.00 | 44 | 1017.8 |
| 20260504181637 | 75 | 165 | 4.3 | 7.8 | 0.00 | 0.00 | 0.00 | 44 | 1017.7 |
| 20260504181135 | 75 | 187 | 5.2 | 7.8 | 0.00 | 0.00 | 0.00 | 44 | 1017.8 |
| 20260504180634 | 75 | 167 | 5.2 | 7.0 | 0.00 | 0.00 | 0.00 | 42 | 1017.8 |
| 20260504180132 | 76 | 111 | 1.7 | 1.7 | 0.00 | 0.00 | 0.00 | 44 | 1017.7 |
| 20260504175629 | 76 | 170 | 3.5 | 3.5 | 0.00 | 0.00 | 0.00 | 48 | 1017.9 |
| 20260504175125 | 76 | 192 | 2.6 | 3.5 | 0.00 | 0.00 | 0.00 | 46 | 1018.0 |
| 20260504174624 | 76 | 145 | 2.6 | 2.6 | 0.00 | 0.00 | 0.00 | 44 | 1018.0 |
| 20260504174120 | 75 | 190 | 3.5 | 3.5 | 0.00 | 0.00 | 0.00 | 45 | 1018.0 |
| 20260504173617 | 75 | 208 | 2.6 | 3.5 | 0.00 | 0.00 | 0.00 | 46 | 1018.2 |
| 20260504173114 | 75 | 161 | 7.8 | 9.6 | 0.00 | 0.00 | 0.00 | 46 | 1018.3 |
| 20260504172610 | 77 | 190 | 0.9 | 0.9 | 0.00 | 0.00 | 0.00 | 46 | 1018.0 |
| 20260504172108 | 76 | 189 | 1.7 | 2.6 | 0.00 | 0.00 | 0.00 | 47 | 1017.9 |
| 20260504171604 | 75 | 347 | 0.9 | 0.9 | 0.00 | 0.00 | 0.00 | 46 | 1018.0 |
| 20260504171101 | 75 | 132 | 1.7 | 2.6 | 0.00 | 0.00 | 0.00 | 46 | 1017.9 |
| 20260504170557 | 75 | 206 | 4.3 | 6.1 | 0.00 | 0.00 | 0.00 | 48 | 1018.0 |
| 20260504150941 | 70 | 149 | 4.3 | 6.1 | 0.00 | 0.00 | 0.00 | 58 | 1018.9 |
| 20260504150437 | 70 | 221 | 0.9 | 1.7 | 0.00 | 0.00 | 0.00 | 67 | 1019.1 |
| 20260504140904 | 65 | 177 | 2.6 | 2.6 | 0.00 | 0.00 | 0.00 | 81 | 1019.0 |
| 20260504140400 | 64 | 155 | 0.9 | 0.9 | 0.00 | 0.00 | 0.00 | 81 | 1018.9 |
| 20260504130325 | 54 | 54 | 0.0 | 0.0 | 0.00 | 0.00 | 0.00 | 99 | 1018.9 |
| 20260504120248 | 48 | 54 | 0.0 | 0.0 | 0.00 | 0.00 | 0.00 | 99 | 1018.7 |
| 20260504110716 | 47 | 54 | 0.0 | 0.0 | 0.00 | 0.00 | 0.00 | 99 | 1018.4 |
| 20260504110212 | 48 | 55 | 0.0 | 0.0 | 0.00 | 0.00 | 0.00 | 99 | 1018.5 |
| 20260504100130 | 48 | 54 | 0.0 | 0.0 | 0.00 | 0.00 | 0.00 | 99 | 1018.2 |
| 20260504081523 | 50 | 54 | 0.0 | 0.0 | 0.00 | 0.00 | 0.00 | 99 | 1018.6 |
| 20260504081019 | 50 | 54 | 0.0 | 0.0 | 0.00 | 0.00 | 0.00 | 99 | 1018.6 |
| 20260504080515 | 50 | 54 | 0.0 | 0.0 | 0.00 | 0.00 | 0.00 | 99 | 1018.6 |